www.pogodaiklimat.ru

Погода и климат >> Архив погоды >> Венгрия >> Szentgotthard


ПОГОДА в Szentgotthard

  • Прогноз погоды в Szentgotthard
  • Монитор погоды в Szentgotthard
  • Климат города

АРХИВ ПОГОДЫ в Szentgotthard

Время (UTC), дата Ветер
(напр.,м/с)
 
Видим.   Явления Облачность Т
(С)
Тd
(С)
f
(%)
Тe
(С)
Тes
(С)
Комфортность P
(гПа)
Po
(гПа)
Тmin
(С)
Tmax
(С)
R
(мм)
R24
(мм)
S
(см)
07 11.08 СВ 1 н/о н/о +18.6 +17.1 91 +21 +21 комфорт 1022.7 985.9
08 11.08 СВ 1 н/о н/о +18.6 +16.8 89 +21 +21 комфорт 1022.8 986.0
09 11.08 С 2 н/о н/о +20.2 +17.4 84 +24 +24 комфорт 1022.5 985.9
10 11.08 С 2 н/о н/о +21.5 +16.9 75 +25 +25 комфорт 1022.0 985.6
11 11.08 С 2 н/о н/о +23.4 +17.2 68 +29 +29 душно 1021.7 985.5
12 11.08 С 2
{7}
н/о н/о +23.8 +17.1 66 +28 +28 душно 1021.3 985.2
13 11.08 С 1 н/о н/о +23.2 +17.4 70 +29 +29 душно 1021.1 984.9
14 11.08 СВ 2 н/о н/о +24.6 +17.1 63 +28 +28 душно 1020.3 984.3
15 11.08 СВ 1 н/о н/о +24.7 +15.9 58 +28 +28 душно 1019.9 984.0
16 11.08 В 1 н/о н/о +23.9 +15.9 61 +27 +27 жарко 1019.8 983.8
17 11.08 штиль 0 н/о н/о +22.5 +18.5 78 +28 +28 душно 1020.0 983.8
18 11.08 штиль 0 н/о н/о +21.3 +17.5 79 +25 +25 комфорт 1020.3 983.9 +25.4
19 11.08 В 1 н/о н/о +20.2 +16.4 79 +24 +24 комфорт 1020.8 984.3
20 11.08 штиль 0 н/о н/о +18.8 +16.4 86 +20 +20 1021.5 984.8
21 11.08 штиль 0 н/о н/о +18.5 +15.7 84 +19 +19 1021.9 985.1
22 11.08 штиль 0 н/о н/о +18.4 +16.2 87 +19 +19 1021.9 985.1
23 11.08 СЗ 2 н/о н/о +18.5 +16.3 87 +20 +20 1022.1 985.3
00 12.08 СЗ 1 н/о н/о +18.0 +16.7 92 +19 +19 1021.8 985.0
01 12.08 СЗ 1 н/о н/о +17.9 +16.6 92 +19 +19 1021.8 985.0
02 12.08 СЗ 1 н/о н/о +17.4 +16.6 95 +18 +18 1021.6 984.7
03 12.08 СЗ 1 н/о н/о +16.6 +16.0 96 +17 +17 1021.7 984.7
04 12.08 СЗ 1 н/о н/о +16.1 +15.8 98 +17 +17 1021.4 984.4
05 12.08 СЗ 2 н/о н/о +16.3 +16.0 98 +16 +16 1021.7 984.7
06 12.08 СЗ 1 н/о н/о +18.3 +15.9 86 +20 +20 1021.7 984.9 +16.0
07 12.08 штиль 0 н/о н/о +21.1 +14.3 65 +24 +24 комфорт 1021.3 984.9
08 12.08 СВ 1 н/о н/о +23.0 +12.3 51 +26 +26 жарко 1021.0 984.8
09 12.08 СВ 1 н/о н/о +24.3 +11.3 44 +26 +26 жарко 1020.6 984.6
10 12.08 Ю 1 н/о н/о +25.5 +12.0 43 +27 +27 жарко 1020.2 984.3
11 12.08 ЮЗ 2 н/о н/о +26.1 +13.9 47 +28 +28 жарко 1019.8 984.0
12 12.08 Ю 3 н/о н/о +26.8 +13.9 45 +29 +29 жарко 1019.3 983.6
13 12.08 Ю 2 н/о н/о +27.3 +15.0 47 +30 +30 душно 1018.3 982.7
14 12.08 Ю 1 н/о н/о +27.3 +13.6 43 +29 +29 жарко 1017.6 982.0
15 12.08 Ю 2 н/о н/о +26.8 +14.2 46 +29 +29 жарко 1016.8 981.2
16 12.08 Ю 2 н/о н/о +25.4 +14.5 51 +28 +28 жарко 1016.3 980.6
17 12.08 Ю 2 н/о н/о +24.3 +14.4 54 +27 +27 жарко 1015.7 979.9
18 12.08 штиль 0 н/о н/о +22.4 +15.3 64 +26 +26 жарко 1015.8 979.7 +27.4
19 12.08 штиль 0 н/о н/о +19.8 +15.9 78 +22 +22 комфорт 1016.0 979.6
20 12.08 Ю 1 н/о н/о +18.7 +15.4 81 +21 +21 комфорт 1016.2 979.7
21 12.08 ЮЗ 1 н/о н/о +18.8 +14.9 78 +21 +21 комфорт 1016.1 979.6
22 12.08 ЮЗ 1 н/о н/о +18.8 +15.1 79 +21 +21 комфорт 1015.8 979.3
23 12.08 ЮЗ 1 н/о н/о +18.3 +15.2 82 +20 +20 1015.7 979.1
00 13.08 ЮЗ 1 н/о н/о +18.2 +15.3 83 +20 +20 1015.3 978.7
01 13.08 Ю 1 н/о н/о +17.7 +15.5 87 +19 +19 1015.0 978.4
02 13.08 СЗ 1 н/о н/о +17.1 +15.6 91 +18 +18 1014.7 978.0
03 13.08 штиль 0 н/о н/о +16.1 +15.3 95 +16 +16 1014.3 977.5
04 13.08 З 1 н/о н/о +15.5 +15.2 98 +16 +16 1014.1 977.2
05 13.08 ЮЗ 1 н/о н/о +15.9 +15.6 98 +17 +17 1013.7 976.9
06 13.08 Ю 1 н/о н/о +19.3 +16.7 85 +22 +22 комфорт 1013.5 977.1 +15.4
07 13.08 Ю 1 н/о н/о +22.7 +18.0 75 +28 +28 душно 1013.0 977.1
08 13.08 Ю 2 н/о н/о +24.3 +18.5 70 +29 +29 душно 1012.6 976.9
09 13.08 Ю 3 н/о н/о +25.8 +18.7 65 +31 +31 очень
душно
1012.2 976.7
10 13.08 Ю 2 н/о н/о +27.2 +19.0 61 +32 +32 очень
душно
1012.0 976.6
11 13.08 Ю 2 н/о н/о +28.8 +19.7 58 +35 +35 очень
душно
1011.5 976.3
12 13.08 Ю 2 н/о н/о +29.3 +18.7 53 +34 +34 очень
душно
1010.7 975.6
13 13.08 Ю 2 н/о н/о +29.8 +18.3 50 +35 +35 очень
душно
1010.0 975.0
14 13.08 ЮЗ 3 н/о н/о +30.0 +17.1 46 +34 +34 очень
душно
1009.5 974.5
15 13.08 Ю 3
{7}
н/о н/о +29.6 +16.4 45 +33 +33 душно 1008.7 973.7
16 13.08 Ю 2 н/о н/о +28.4 +16.7 49 +32 +32 душно 1008.2 973.1
17 13.08 Ю 2 н/о н/о +27.3 +16.9 53 +31 +31 душно 1007.7 972.5
18 13.08 Ю 1 н/о н/о +25.2 +18.6 67 +30 +30 душно 1008.3 972.8 +30.2
19 13.08 Ю 1 н/о н/о +23.1 +18.0 73 +29 +29 очень
душно
1008.4 972.7
20 13.08 Ю 2 н/о н/о +22.1 +18.1 78 +27 +27 душно 1008.8 972.9
21 13.08 Ю 2 н/о н/о +21.1 +17.5 80 +25 +25 комфорт 1008.8 972.8
22 13.08 Ю 2 н/о н/о +20.6 +16.8 79 +25 +25 комфорт 1008.7 972.7
23 13.08 Ю 1 н/о н/о +19.6 +16.3 81 +23 +23 комфорт 1009.2 973.0
00 14.08 штиль 0 н/о н/о +18.6 +16.2 86 +19 +19 1009.5 973.2
01 14.08 ЮЗ 1 н/о н/о +18.4 +15.8 85 +20 +20 1009.7 973.4
02 14.08 штиль 0 н/о н/о +17.8 +15.8 88 +18 +18 1010.5 974.1
03 14.08 штиль 0 н/о н/о +17.0 +15.9 93 +17 +17 1010.6 974.1
04 14.08 СВ 1 н/о н/о +17.2 +16.1 93 +18 +18 1011.1 974.6
05 14.08 В 2 н/о н/о +17.9 +16.4 91 +18 +18 1011.3 974.8
06 14.08 штиль 0 н/о н/о +20.2 +17.4 84 +23 +23 комфорт 1011.9 975.7 +16.8
07 14.08 В 2 н/о н/о +21.7 +16.4 72 +26 +26 душно 1012.0 976.0
08 14.08 С 1 н/о н/о +20.6 +16.6 78 +25 +25 комфорт 1012.8 976.6
09 14.08 С 1 н/о н/о +19.6 +18.4 93 +23 +23 комфорт 1013.1 976.8
10 14.08 С 2 н/о н/о +19.9 +17.9 88 +23 +23 комфорт 1013.1 976.8
11 14.08 С 1 н/о н/о +18.8 +17.6 93 +21 +21 комфорт 1013.7 977.3
12 14.08 СЗ 3 н/о н/о +18.3 +17.7 96 +19 +19 1013.9 977.4 1
13 14.08 С 2
{7}
н/о н/о +17.9 +17.6 98 +18 +18 1014.2 977.6
14 14.08 СЗ 2 н/о н/о +17.7 +17.5 99 +18 +18 1014.3 977.7
15 14.08 СЗ 2 н/о н/о +18.9 +18.7 99 +21 +21 комфорт 1013.6 977.2
16 14.08 штиль 0 н/о н/о +19.2 +18.7 97 +21 +21 комфорт 1013.8 977.4
17 14.08 З 1 н/о н/о +19.4 +19.1 98 +23 +23 комфорт 1013.9 977.5
18 14.08 З 1 н/о н/о +19.3 +18.8 97 +23 +23 комфорт 1013.9 977.5 +22.0 16
19 14.08 З 1 н/о н/о +18.2 +18.0 99 +20 +20 1014.2 977.7
20 14.08 З 2 н/о н/о +18.2 +18.0 99 +19 +19 1014.3 977.8
21 14.08 З 2 н/о н/о +18.0 +17.8 99 +19 +19 1014.7 978.1
22 14.08 З 1 н/о н/о +17.5 +17.2 98 +19 +19 1015.0 978.4
23 14.08 СЗ 1 н/о н/о +17.0 +16.7 98 +18 +18 1015.7 979.0
00 15.08 СЗ 1 н/о н/о +16.5 +16.2 98 +17 +17 1016.1 979.3
01 15.08 СЗ 1 н/о н/о +15.8 +15.3 97 +16 +16 1016.0 979.1
02 15.08 СЗ 1 н/о н/о +15.2 +14.9 98 +16 +16 1016.5 979.5
03 15.08 СЗ 1 н/о н/о +14.7 +14.2 97 +15 +15 1016.6 979.6
04 15.08 СЗ 2 н/о н/о +14.5 +14.0 97 +14 +14 1016.8 979.7
05 15.08 СЗ 1 н/о н/о +14.3 +14.1 99 +15 +15 1017.4 980.3
06 15.08 СЗ 1 н/о н/о +15.3 +15.3 100 +16 +16 1017.9 980.9 +14.2
07 15.08 штиль 0 н/о н/о +18.7 +17.4 92 +20 +20 1017.6 981.0
08 15.08 С 3 н/о н/о +20.9 +15.0 69 +24 +24 комфорт 1017.7 981.4
09 15.08 С 3
{7}
н/о н/о +22.5 +15.4 64 +26 +26 жарко 1018.0 981.9
10 15.08 С 3
{9}
н/о н/о +23.6 +15.1 59 +26 +26 жарко 1017.9 981.9
11 15.08 СВ 1 н/о н/о +24.5 +15.4 57 +27 +27 жарко 1017.7 981.8
12 15.08 С 2 н/о н/о +25.3 +14.7 52 +28 +28 жарко 1017.5 981.7
13 15.08 С 3
{7}
н/о н/о +24.8 +14.3 52 +27 +27 жарко 1017.5 981.7
14 15.08 С 2 н/о н/о +23.7 +13.8 54 +26 +26 жарко 1017.5 981.5
15 15.08 С 2 н/о н/о +24.9 +13.5 49 +27 +27 жарко 1017.1 981.3
16 15.08 С 2
{7}
н/о н/о +24.6 +12.9 48 +27 +27 жарко 1016.9 981.1
17 15.08 С 2
{7}
н/о н/о +23.7 +13.3 52 +26 +26 жарко 1017.0 981.0
18 15.08 н/о н/о +20.6 +14.5 68 1017.7 981.3 +25.7
19 15.08 С 1 н/о н/о +18.6 +14.3 76 +20 +20 1018.4 981.8
20 15.08 СЗ 1 н/о н/о +17.8 +14.1 79 +19 +19 1019.0 982.3
21 15.08 СЗ 2 н/о н/о +17.0 +14.1 83 +17 +17 1019.4 982.5
22 15.08 СЗ 2 н/о н/о +16.8 +14.6 87 +17 +17 1019.6 982.7
23 15.08 СЗ 2 н/о н/о +16.2 +14.6 90 +16 +16 1019.7 982.7
00 16.08 СЗ 2 н/о н/о +15.9 +14.3 90 +16 +16 1019.5 982.5
01 16.08 СЗ 2 н/о н/о +15.8 +13.8 88 +16 +16 1019.4 982.4
02 16.08 СЗ 2 н/о н/о +15.4 +13.2 87 +15 +15 1019.3 982.2
03 16.08 СЗ 2 н/о н/о +15.0 +13.0 88 +15 +15 1019.3 982.2
04 16.08 СЗ 2 н/о н/о +14.7 +12.9 89 +14 +14 1019.6 982.4
05 16.08 СЗ 2 н/о н/о +14.7 +12.7 88 +14 +14 1019.8 982.6
06 16.08 СЗ 2 н/о н/о +16.9 +13.2 79 +17 +17 1019.5 982.6 +14.5
07 16.08 СЗ 2 н/о н/о +19.1 +14.4 74 +21 +21 комфорт 1019.3 982.7
08 16.08 СВ 1 н/о н/о +21.6 +14.3 63 +25 +25 комфорт 1019.1 982.8
09 16.08 С 1 н/о н/о +23.2 +14.8 59 +27 +27 душно 1018.9 982.8
10 16.08 В 1 н/о н/о +24.5 +13.1 49 +27 +27 жарко 1018.5 982.6
11 16.08 СВ 2 н/о н/о +24.9 +12.8 47 +27 +27 жарко 1017.9 982.1
12 16.08 СВ 2 н/о н/о +25.3 +12.9 46 +27 +27 жарко 1017.5 981.7
13 16.08 В 1 н/о н/о +25.9 +12.0 42 +27 +27 жарко 1017.1 981.4
14 16.08 СВ 1 н/о н/о +26.5 +12.2 41 +28 +28 жарко 1016.4 980.8
15 16.08 С 1 н/о н/о +25.9 +12.0 42 +27 +27 жарко 1016.2 980.5
16 16.08 штиль 0 н/о н/о +24.7 +12.6 47 +27 +27 жарко 1016.1 980.3
17 16.08 штиль 0 н/о н/о +23.0 +13.2 54 +26 +26 жарко 1015.9 979.9
18 16.08 штиль 0 н/о н/о +20.9 +13.4 62 +23 +23 комфорт 1016.2 979.9 +26.8
19 16.08 штиль 0 н/о н/о +18.8 +13.7 72 +20 +20 1016.5 980.0
20 16.08 штиль 0 н/о н/о +17.7 +14.0 79 +18 +18 1017.1 980.4
21 16.08 СЗ 1 н/о н/о +17.6 +14.5 82 +19 +19 1017.1 980.4
22 16.08 СЗ 2 н/о н/о +17.1 +14.6 85 +17 +17 1017.3 980.5
23 16.08 СЗ 1 н/о н/о +17.0 +14.6 86 +18 +18 1017.3 980.5
00 17.08 З 1 н/о н/о +15.8 +14.3 91 +16 +16 1017.1 980.2
01 17.08 СЗ 1 н/о н/о +15.4 +14.4 94 +16 +16 1017.1 980.1
02 17.08 СЗ 2 н/о н/о +15.1 +14.3 95 +15 +15 1016.9 979.9
03 17.08 СЗ 1 н/о н/о +14.7 +14.1 96 +15 +15 1016.6 979.6
04 17.08 СЗ 2 н/о н/о +14.4 +13.8 96 +14 +14 1016.7 979.6
05 17.08 СЗ 2 н/о н/о +14.5 +14.0 97 +14 +14 1016.8 979.7
06 17.08 штиль 0 н/о н/о +16.7 +14.9 89 +17 +17 1016.7 979.9 +14.1
07 17.08 штиль 0 н/о н/о +20.9 +15.9 73 +24 +24 комфорт 1016.4 980.1
08 17.08 штиль 0 н/о н/о +23.4 +16.2 64 +28 +28 душно 1016.2 980.2
09 17.08 Ю 1 н/о н/о +25.4 +16.3 57 +29 +29 душно 1016.2 980.5
10 17.08 Ю 2 н/о н/о +25.9 +15.3 52 +29 +29 душно 1016.1 980.4
11 17.08 Ю 2 н/о н/о +26.9 +16.8 54 +31 +31 душно 1015.5 980.0
12 17.08 Ю 2 н/о н/о +26.8 +16.7 54 +30 +30 душно 1015.3 979.8
13 17.08 ЮВ 2 н/о н/о +27.1 +16.7 53 +31 +31 душно 1015.0 979.5
14 17.08 Ю 2 н/о н/о +27.2 +15.9 50 +30 +30 душно 1014.7 979.2
15 17.08 Ю 1 н/о н/о +26.7 +16.0 52 +30 +30 душно 1014.5 979.0
16 17.08 ЮВ 2 н/о н/о +26.3 +16.0 53 +30 +30 душно 1014.4 978.8
17 17.08 штиль 0 н/о н/о +24.8 +16.5 60 +28 +28 жарко 1014.5 978.8
18 17.08 штиль 0 н/о н/о +22.3 +17.2 73 +27 +27 душно 1015.1 979.0 +27.9
19 17.08 штиль 0 н/о н/о +20.3 +16.7 80 +23 +23 комфорт 1015.8 979.5
20 17.08 штиль 0 н/о н/о +19.5 +15.8 79 +21 +21 комфорт 1016.4 980.0
21 17.08 штиль 0 н/о н/о +18.9 +15.2 79 +20 +20 1016.7 980.2
22 17.08 штиль 0 н/о н/о +18.5 +15.6 83 +19 +19 1017.0 980.4
23 17.08 СЗ 1 н/о н/о +18.2 +16.4 89 +20 +20 1017.1 980.5
00 18.08 СЗ 2 н/о н/о +17.7 +16.4 92 +18 +18 1017.3 980.6
01 18.08 СЗ 2 н/о н/о +17.3 +16.3 94 +18 +18 1017.4 980.7
02 18.08 СЗ 1 н/о н/о +17.0 +16.2 95 +18 +18 1017.6 980.8
03 18.08 СЗ 1 н/о н/о +16.2 +15.9 98 +17 +17 1017.8 980.9
04 18.08 СЗ 1 н/о н/о +15.8 +15.6 99 +16 +16 1018.2 981.2
05 18.08 СЗ 1 н/о н/о +15.8 +15.6 99 +16 +16 1018.6 981.6

 

Местоположение метеостанции Szentgotthard (Венгрия): широта 46.92 долгота 16.32 высота над уровнем моря 313 м.

В архиве по умолчанию представлена погода в Szentgotthard за последнюю неделю. Архивные данные за месяц целиком и за предыдущие месяцы, начиная с января 2011 года, Вы можете получить, выбрав интересующий диапазон дат из раскрывающегося списка и нажав кнопку "Ввод!".


*Определитесь, кто Вы:
робот инопланетянин человек

Внимание! Время в таблицах - всемирное. Для получения местного времени необходимо прибавить поправку, которая в Szentgotthard равна 1 ч.

Смотрите также архив погоды в соседних городах и на ближайших метеорологических станциях:

Погода в Kleinzicken (Австрия) (31 км)
Погода в Murska Sobota (Словения) (32 км)
Погода в Bad Gleichenberg (Австрия) (32 км)
Погода в Feldbach (Австрия) (34 км)
Погода в Zalaegerszeg (Венгрия) (37 км)
Погода в Bad Radkersburg (Австрия) (37 км)
Погода в Szombathely (Венгрия) (45 км)
Погода в Bad Tatzmannsdorf (Австрия) (46 км)
Погода в Hartberg (Австрия) (48 км)
Погода в Lassnitzhoehe (Австрия) (59 км)

Пояснения к столбцам:

Ветер - указаны скорость ветра в м/с - средняя за 10 мин, порывы в срок и между сроками (в фигурных скобках) и направление, откуда дует ветер: С - северный, СВ - северо-восточный, В - восточный, ЮВ - юго-восточный, Ю - южный, ЮЗ - юго-западный, З - западный, СЗ - северо-западный.
Видимость - горизонтальная дальность видимости в метрах или километрах. При видимости от 1 до 10 км при отсутствии осадков обычно наблюдается дымка, при ухудшении видимости до 1 км и менее - туман. В сухую погоду видимость может ухудшаться дымом, пылью или мглою.
Явления - указаны атмосферные явления, наблюдавшиеся в срок или в последний час перед сроком; фигурными скобками обозначены явления, наблюдавшиеся между сроками (за 1-3 часа до срока); квадратными скобками обозначены град или гололедные отложения с указанием их диаметра в мм.
Облачность - указаны через наклонную черту общая и нижняя облачность в баллах и высота нижней границы облаков в метрах; квадратными скобками обозначены формы облаков: Ci - перистые, Cs - перисто-слоистые, Cc - перисто-кучевые, Ac - высококучевые, As - высокослоистые, Sc - слоисто-кучевые, Ns - слоисто-дождевые, Cu - кучевые, Cb - кучево-дождевые. Подробнее классификацию облаков см. в Атласе облаков (PDF).
T - Температура воздуха - температура, измеренная на высоте 2 м над землей.
Td - Температура точки росы - температура, при понижении до которой содержащийся в воздухе водяной пар достигнет насыщения.
f - Относительная влажность воздуха - влажноcть воздуха, измеренная на высоте 2 м над землей.
Te - Эффективная температура - температура, которую ощущает одетый по сезону человек в тени. Характеристика душности погоды. При расчете учитывается влияние влажности воздуха и скорости ветра на теплоощущения человека.
Tes - Эффективная температура на солнце - температура, которую ощущает человек, с поправкой на солнечный нагрев. Характеристика знойности погоды. Зависит от высоты солнца над горизонтом, облачности и скорости ветра. Ночью, в пасмурную погоду, а также при ветре 12 м/с и более поправка равна нулю.
P - Атмосферное давление - приведенное к уровню моря атмосферное давление.
Po - Атмосферное давление - измеренное на уровне метеостанции атмосферное давление.
Tmin - Минимальная температура - минимум температуры воздуха на высоте 2 м над землей.
Tmax - Максимальная температура - максимум температуры воздуха на высоте 2 м над землей.
R - Количество осадков - Количество выпавших осадков за период времени, мм. При наведении курсора мыши на число - период времени, за который выпало указанное количество осадков.
R24 - Количество осадков - Количество выпавших осадков за 24 часа, мм.
S - Снежный покров - Высота снежного покрова, см. При наведении курсора мыши на число - состояние снежного покрова и степень покрытия местности в баллах.